Location: French River
(46.0362°N, 80.5373°W)
Time: 15:06:42
(UTC-05:00)

ISS - Pass Details

Date: 05 December 2023
Orbit: 414 x 422 km, 51.6° (Epoch: 27 February)

Event Time Altitude Azimuth Distance (km) Brightness Sun altitude
Rises 18:19:49 0° 288° (WNW) 2,416 1.1 -17.1°
Reaches altitude 10° 18:22:25 10° 268° (W) 1,550 0.3 -17.5°
Maximum altitude 18:24:48 18° 225° (SW) 1,169 -0.8 -17.9°
Drops below altitude 10° 18:27:12 10° 181° (S) 1,551 -0.7 -18.3°
Enters shadow 18:30:34 -2° 158° (SSE) 2,707 0.3 -18.9°
